Location: Unspecified
(0.0000°N, 0.0000°E)
Time: 16:21:29
(UTC+00:00)

A-11 Canister half - Pass Details

Date: 28 November 2019
Orbit: 1526 x 1683 km, 47.3° (Epoch: 12 December)

Event Time Altitude Azimuth Distance (km) Brightness Sun altitude
Rises 04:57:00 0° 203° (SSW) 4,846 11.6 -11.8°
Reaches altitude 10° 05:00:28 10° 195° (SSW) 3,879 11.2 -11.0°
Maximum altitude 05:09:27 38° 130° (SE) 2,371 10.7 -8.9°
Drops below altitude 10° 05:18:30 10° 66° (ENE) 3,937 11.9 -6.8°
Sets 05:22:00 0° 59° (ENE) 4,925 12.2 -6.0°
